EW9081 Weather Reports


time (UTC)temp
C
wind
direction
speed
KPH
gust
KPH
rain 1hr
cm
rain 24hr
cm
rain mn
cm
humidity
%
barometer
mb
20260901153730 15 300 3.2 6.4 0.00 0.00 0.00 81 1011.9
20260901153726 16 294 3.2 6.4 0.00 0.00 0.00 82 1012.0
20260901153223 15 294 3.2 6.4 0.00 0.00 0.00 82 1011.9
20260901152228 15 248 1.6 3.2 0.00 0.00 0.00 81 1011.9
20260901152224 15 297 1.6 6.4 0.00 0.00 0.00 81 1011.9
20260901151225 15 237 1.6 3.2 0.00 0.00 0.00 81 1011.9
20260901150725 15 237 1.6 3.2 0.00 0.00 0.00 79 1011.9
20260901150223 15 238 1.6 4.8 0.00 0.00 0.00 78 1011.9
20260901145723 15 241 1.6 4.8 0.00 0.00 0.00 78 1011.8
20260901145224 15 185 1.6 3.2 0.00 0.00 0.00 80 1011.8
20260901144724 15 179 1.6 3.2 0.00 0.00 0.00 81 1011.8
20260901144225 15 179 1.6 3.2 0.00 0.00 0.00 81 1011.8
20260901143723 15 179 1.6 3.2 0.00 0.00 0.00 81 1011.8
20260901143225 15 179 1.6 4.8 0.00 0.00 0.00 81 1011.7
20260901142725 15 179 1.6 4.8 0.00 0.00 0.00 81 1011.7
20260901142224 15 177 1.6 4.8 0.00 0.00 0.00 81 1011.6
20260901141725 15 176 1.6 4.8 0.00 0.00 0.00 81 1011.6
20260901141224 15 180 1.6 3.2 0.00 0.00 0.00 81 1011.5
20260901140724 15 180 0.0 3.2 0.00 0.00 0.00 82 1011.6
20260901140224 15 180 0.0 3.2 0.00 0.00 0.00 82 1011.5
20260901135729 15 184 1.6 3.2 0.00 0.00 0.00 82 1011.5
20260901135725 15 184 1.6 3.2 0.00 0.00 0.00 82 1011.5
20260901134724 15 184 1.6 3.2 0.00 0.00 0.00 82 1011.5
20260901134223 14 184 1.6 3.2 0.00 0.00 0.00 82 1011.4
20260901133723 14 184 3.2 4.8 0.00 0.00 0.00 82 1011.3
20260901133225 14 184 1.6 4.8 0.00 0.00 0.00 82 1011.4
20260901132722 14 188 1.6 4.8 0.00 0.00 0.00 82 1011.4
20260901132221 14 188 1.6 4.8 0.00 0.00 0.00 82 1011.4
20260901131722 14 189 1.6 4.8 0.00 0.00 0.00 83 1011.4
20260901131223 14 196 1.6 3.2 0.00 0.00 0.00 82 1011.4
20260901130718 14 196 1.6 3.2 0.00 0.00 0.00 82 1011.4
20260901130223 14 196 1.6 4.8 0.00 0.00 0.00 82 1011.3
20260901130217 14 196 1.6 3.2 0.00 0.00 0.00 82 1011.4
20260901125830 14 196 1.6 4.8 0.00 0.00 0.00 82 1011.3
20260901124718 15 196 1.6 4.8 0.00 0.00 0.00 81 1011.3
20260901124219 15 196 1.6 4.8 0.00 0.00 0.00 81 1011.3
20260901123717 15 234 0.0 4.8 0.00 0.00 0.00 83 1011.2
20260901123217 15 243 0.0 3.2 0.00 0.00 0.00 83 1011.3
20260901122717 15 243 0.0 3.2 0.00 0.00 0.00 83 1011.3
20260901122217 15 244 0.0 3.2 0.00 0.00 0.00 83 1011.2
20260901121718 15 244 0.0 3.2 0.00 0.00 0.00 83 1011.3
20260901121218 15 244 0.0 3.2 0.00 0.00 0.00 83 1011.3
20260901120717 15 226 0.0 3.2 0.00 0.00 0.00 82 1011.3
20260901120219 15 224 0.0 6.4 0.00 0.00 0.00 83 1011.3
20260901115716 15 224 0.0 6.4 0.00 0.00 0.00 82 1011.3
20260901115216 15 251 0.0 3.2 0.00 0.00 0.00 82 1011.3
20260901114715 15 251 1.6 3.2 0.00 0.00 0.00 82 1011.2
20260901114216 15 252 1.6 3.2 0.00 0.00 0.00 82 1011.1
20260901113715 15 252 1.6 4.8 0.00 0.00 0.00 82 1011.2
20260901113220 15 247 1.6 6.4 0.00 0.00 0.00 82 1011.1
20260901113215 15 252 1.6 6.4 0.00 0.00 0.00 82 1011.2
20260901112215 15 252 0.0 4.8 0.00 0.00 0.00 82 1011.1
20260901111715 15 270 1.6 6.4 0.00 0.00 0.00 82 1011.1
20260901111213 15 241 3.2 9.7 0.00 0.00 0.00 81 1011.0
20260901110715 15 217 3.2 9.7 0.00 0.00 0.00 81 1011.0
20260901110215 15 243 1.6 6.4 0.00 0.00 0.00 81 1011.0
20260901105713 15 282 1.6 6.4 0.00 0.00 0.00 81 1010.9
20260901105212 15 237 1.6 6.4 0.00 0.00 0.00 81 1011.0
20260901104712 15 259 1.6 6.4 0.00 0.00 0.00 81 1011.0
20260901104210 15 248 1.6 6.4 0.00 0.00 0.00 80 1011.0
20260901103712 15 248 3.2 9.7 0.00 0.00 0.00 80 1010.9
20260901103212 15 257 4.8 17.7 0.00 0.00 0.00 80 1011.0
20260901102711 15 290 3.2 17.7 0.00 0.00 0.00 81 1011.0
20260901102211 15 247 1.6 8.0 0.00 0.00 0.00 81 1010.9
20260901101711 15 265 3.2 8.0 0.00 0.00 0.00 81 1011.0
20260901101216 15 244 3.2 8.0 0.00 0.00 0.00 81 1011.0
20260901101212 15 275 3.2 8.0 0.00 0.00 0.00 81 1011.0
20260901100210 15 236 3.2 9.7 0.00 0.00 0.00 81 1011.0
20260901095713 15 248 3.2 11.3 0.00 0.00 0.00 82 1010.9
20260901095708 15 258 3.2 9.7 0.00 0.00 0.00 81 1010.9
20260901095323 15 217 3.2 12.9 0.00 0.00 0.00 82 1011.0
20260901094708 15 232 3.2 11.3 0.00 0.00 0.00 82 1011.0
20260901093709 15 198 4.8 14.5 0.00 0.00 0.00 81 1011.0
20260901093209 15 255 4.8 14.5 0.00 0.00 0.00 82 1011.1
20260901092709 15 246 4.8 12.9 0.00 0.00 0.00 82 1011.0
20260901092208 15 312 4.8 12.9 0.00 0.00 0.00 82 1011.0
20260901091710 15 208 3.2 12.9 0.00 0.00 0.00 83 1010.9
20260901091207 15 236 3.2 12.9 0.00 0.00 0.00 83 1010.8
20260901090709 15 250 4.8 12.9 0.00 0.00 0.00 83 1010.8
20260901090207 15 227 4.8 12.9 0.00 0.00 0.00 83 1010.8
20260901085707 15 214 1.6 9.7 0.00 0.00 0.00 83 1010.8
20260901085206 15 248 3.2 11.3 0.00 0.00 0.00 83 1010.7
20260901084704 15 245 3.2 12.9 0.00 0.00 0.00 83 1010.6
20260901084206 15 223 3.2 12.9 0.00 0.00 0.00 83 1010.6
20260901083706 15 238 3.2 9.7 0.00 0.00 0.00 83 1010.6
20260901083205 15 235 3.2 14.5 0.00 0.00 0.00 83 1010.7
20260901082710 15 271 3.2 11.3 0.00 0.00 0.00 83 1010.8
20260901082706 15 284 4.8 14.5 0.00 0.00 0.00 83 1010.7
20260901081706 15 290 1.6 8.0 0.00 0.00 0.00 83 1010.8
20260901081206 15 238 3.2 12.9 0.00 0.00 0.00 83 1010.8
20260901080705 15 238 4.8 12.9 0.00 0.00 0.00 83 1010.8
20260901080203 15 227 4.8 12.9 0.00 0.00 0.00 83 1010.8
20260901075708 15 250 3.2 12.9 0.00 0.00 0.00 83 1010.7
20260901075704 15 250 4.8 12.9 0.00 0.00 0.00 83 1010.7
20260901074702 15 263 3.2 14.5 0.00 0.00 0.00 83 1010.6
20260901074200 15 227 3.2 14.5 0.00 0.00 0.00 83 1010.6
20260901073659 15 262 3.2 14.5 0.00 0.00 0.00 83 1010.6
20260901073200 15 211 4.8 14.5 0.00 0.00 0.00 83 1010.5
20260901072657 15 244 4.8 12.9 0.00 0.00 0.00 83 1010.5
20260901072158 15 221 4.8 11.3 0.00 0.00 0.00 83 1010.5
20260901071657 15 244 4.8 12.9 0.00 0.00 0.00 83 1010.4
20260901071202 15 241 3.2 11.3 0.00 0.00 0.00 83 1010.4
20260901071158 15 225 3.2 12.9 0.00 0.00 0.00 83 1010.5
20260901070155 15 264 4.8 11.3 0.00 0.00 0.00 83 1010.4
20260901065659 15 250 4.8 12.9 0.00 0.00 0.00 83 1010.3
20260901065655 15 225 4.8 12.9 0.00 0.00 0.00 83 1010.3
20260901065309 15 237 4.8 19.3 0.00 0.00 0.00 83 1010.3
20260901064155 15 251 6.4 19.3 0.00 0.00 0.00 83 1010.2
20260901063700 15 261 6.4 20.9 0.00 0.00 0.00 83 1010.1
20260901063656 15 234 8.0 20.9 0.00 0.00 0.00 83 1010.2
20260901062657 15 255 4.8 19.3 0.00 0.00 0.00 83 1010.2
20260901062152 15 243 3.2 14.5 0.00 0.00 0.00 83 1010.1
20260901061655 15 239 3.2 12.9 0.00 0.00 0.00 83 1010.2
20260901061153 15 236 3.2 12.9 0.00 0.00 0.00 83 1010.2
20260901060654 15 226 4.8 12.9 0.00 0.00 0.00 83 1010.2
20260901060153 15 224 4.8 16.1 0.00 0.00 0.00 83 1010.1
20260901055655 15 302 4.8 16.1 0.00 0.00 0.00 83 1010.0
20260901055153 15 229 3.2 11.3 0.00 0.00 0.00 83 1009.9
20260901054653 15 251 3.2 11.3 0.00 0.00 0.00 83 1009.8
20260901054154 15 250 4.8 16.1 0.00 0.00 0.00 83 1009.9
20260901053654 15 254 4.8 16.1 0.00 0.00 0.00 83 1009.9
20260901053152 15 213 4.8 12.9 0.00 0.00 0.00 83 1009.9
20260901052658 15 279 3.2 11.3 0.00 0.00 0.00 83 1009.9
20260901052652 15 261 4.8 12.9 0.00 0.00 0.00 83 1009.8
20260901052152 15 280 4.8 11.3 0.00 0.00 0.00 83 1009.9
20260901051806 15 259 4.8 11.3 0.00 0.00 0.00 83 1010.0
20260901050651 15 284 4.8 12.9 0.00 0.00 0.00 83 1009.8
20260901050151 15 280 3.2 19.3 0.00 0.00 0.00 83 1009.9
20260901045651 15 227 4.8 19.3 0.00 0.00 0.00 83 1009.9
20260901045151 15 252 4.8 19.3 0.00 0.00 0.00 82 1009.9
20260901044651 15 298 6.4 19.3 0.00 0.00 0.00 82 1009.9
20260901044155 15 258 6.4 17.7 0.00 0.00 0.00 82 1009.9
20260901044149 15 237 6.4 14.5 0.00 0.00 0.00 82 1009.9
20260901043149 15 242 6.4 17.7 0.00 0.00 0.00 82 1009.9
20260901042649 15 249 4.8 11.3 0.00 0.00 0.00 81 1009.9
20260901042149 15 260 4.8 12.9 0.00 0.00 0.00 81 1009.8
20260901041650 15 259 4.8 19.3 0.00 0.00 0.00 81 1009.8
20260901041149 15 267 6.4 19.3 0.00 0.00 0.00 80 1009.8
20260901040650 15 254 6.4 16.1 0.00 0.00 0.00 80 1009.8
20260901040149 15 244 6.4 20.9 0.00 0.00 0.00 80 1009.7
20260901035649 15 300 6.4 22.5 0.00 0.00 0.00 80 1009.7
20260901035146 15 296 6.4 22.5 0.00 0.00 0.00 79 1009.5
20260901034650 15 236 6.4 20.9 0.00 0.00 0.00 79 1009.6
20260901034645 15 329 9.7 22.5 0.00 0.00 0.00 79 1009.5
20260901033645 16 280 8.0 22.5 0.00 0.00 0.00 79 1009.5
20260901033144 16 286 6.4 20.9 0.00 0.00 0.00 78 1009.4
20260901032643 16 252 6.4 16.1 0.00 0.00 0.00 77 1009.4
20260901032142 16 261 6.4 17.7 0.00 0.00 0.00 76 1009.2
20260901031643 16 221 6.4 20.9 0.00 0.00 0.00 76 1009.1
20260901031144 16 298 8.0 20.9 0.00 0.00 0.00 74 1009.0
20260901030642 17 286 8.0 19.3 0.00 0.00 0.00 74 1009.0
20260901030141 17 206 6.4 17.7 0.00 0.00 0.00 72 1008.9
20260901025641 17 219 6.4 17.7 0.00 0.00 0.00 71 1008.8
20260901025141 17 188 9.7 22.5 0.00 0.00 0.00 70 1008.7
20260901024641 17 209 11.3 24.1 0.00 0.00 0.00 70 1008.7
20260901024141 18 222 8.0 24.1 0.00 0.00 0.00 69 1008.5
20260901023640 18 219 8.0 19.3 0.00 0.00 0.00 68 1008.5
20260901023146 18 229 8.0 19.3 0.00 0.00 0.00 67 1008.3
20260901023142 18 228 8.0 19.3 0.00 0.00 0.00 67 1008.3
20260901022141 18 252 9.7 22.5 0.00 0.00 0.00 66 1008.2
20260901021641 19 263 8.0 22.5 0.00 0.00 0.00 65 1008.1
20260901021141 20 236 8.0 27.4 0.00 0.00 0.00 63 1008.1
20260901020640 20 248 8.0 27.4 0.00 0.00 0.00 61 1008.1
20260901020141 20 232 6.4 19.3 0.00 0.00 0.00 59 1008.1
20260901015640 20 185 6.4 19.3 0.00 0.00 0.00 58 1008.0
20260901015141 21 279 4.8 19.3 0.00 0.00 0.00 57 1008.0
20260901014639 21 292 6.4 19.3 0.00 0.00 0.00 57 1007.9
20260901014136 21 288 6.4 19.3 0.00 0.00 0.00 56 1008.0
20260901013636 21 275 6.4 19.3 0.00 0.00 0.00 55 1007.8
20260901013138 21 281 6.4 14.5 0.00 0.00 0.00 54 1008.0
20260901012638 22 321 8.0 20.9 0.00 0.00 0.00 53 1007.9
20260901012136 22 315 8.0 20.9 0.00 0.00 0.00 51 1008.0
20260901011638 22 268 8.0 22.5 0.00 0.00 0.00 50 1007.9
20260901011136 22 247 8.0 22.5 0.00 0.00 0.00 49 1008.1
20260901010640 23 0 6.4 16.1 0.00 0.00 0.00 48 1008.1
20260901010636 23 209 8.0 16.1 0.00 0.00 0.00 49 1008.1
20260901010251 23 256 6.4 16.1 0.00 0.00 0.00 48 1007.9
20260901005136 23 340 6.4 19.3 0.00 0.00 0.00 48 1008.0
20260901004637 24 280 6.4 19.3 0.00 0.00 0.00 47 1008.0
20260901004137 24 304 6.4 19.3 0.00 0.00 0.00 47 1007.9
20260901003638 25 189 8.0 19.3 0.00 0.00 0.00 47 1007.9
20260901003137 25 302 8.0 20.9 0.00 0.00 0.00 47 1007.8
20260901002636 25 205 6.4 20.9 0.00 0.00 0.00 45 1007.8
20260901002136 25 277 8.0 19.3 0.00 0.00 0.00 46 1007.8
20260901001642 26 300 8.0 22.5 0.00 0.00 0.00 45 1007.8
20260901001638 25 244 8.0 19.3 0.00 0.00 0.00 45 1007.8
20260901000642 26 324 9.7 22.5 0.00 0.00 0.00 45 1007.7
20260901000637 26 257 8.0 22.5 0.00 0.00 0.00 45 1007.7
20260831235637 26 274 9.7 22.5 0.00 0.00 0.00 44 1007.6
20260831235140 27 286 6.4 19.3 0.00 0.00 0.00 43 1007.5
20260831235136 27 275 8.0 19.3 0.00 0.00 0.00 43 1007.5
20260831234137 27 227 6.4 19.3 0.00 0.00 0.00 44 1007.4
20260831233635 27 313 6.4 16.1 0.00 0.00 0.00 44 1007.5
20260831233138 27 262 6.4 16.1 0.00 0.00 0.00 44 1007.5
20260831233134 27 270 8.0 16.1 0.00 0.00 0.00 44 1007.4
20260831232747 27 333 4.8 16.1 0.00 0.00 0.00 44 1007.5
20260831232134 27 271 6.4 20.9 0.00 0.00 0.00 44 1007.6
20260831231132 27 263 6.4 20.9 0.00 0.00 0.00 42 1007.6
20260831230632 28 192 4.8 16.1 0.00 0.00 0.00 41 1007.5
20260831230132 28 299 4.8 14.5 0.00 0.00 0.00 40 1007.5
20260831225630 28 244 4.8 14.5 0.00 0.00 0.00 41 1007.5
20260831225131 28 258 4.8 17.7 0.00 0.00 0.00 41 1007.5
20260831224631 28 303 6.4 17.7 0.00 0.00 0.00 41 1007.5
20260831224128 29 250 4.8 12.9 0.00 0.00 0.00 40 1007.5
20260831223628 29 242 4.8 12.9 0.00 0.00 0.00 40 1007.5
20260831223127 29 231 6.4 12.9 0.00 0.00 0.00 41 1007.4
20260831222626 29 288 6.4 19.3 0.00 0.00 0.00 40 1007.5
20260831222126 29 252 6.4 19.3 0.00 0.00 0.00 40 1007.5
20260831221626 29 301 4.8 14.5 0.00 0.00 0.00 39 1007.5
20260831221124 29 303 1.6 8.0 0.00 0.00 0.00 35 1007.5
20260831220625 29 184 1.6 6.4 0.00 0.00 0.00 37 1007.5
20260831220126 28 206 1.6 6.4 0.00 0.00 0.00 36 1007.7
20260831220122 28 253 3.2 6.4 0.00 0.00 0.00 35 1007.7
20260831215733 28 69 3.2 6.4 0.00 0.00 0.00 37 1007.9
20260831215119 28 336 1.6 6.4 0.00 0.00 0.00 36 1007.7
20260831214738 28 93 3.2 11.3 0.00 0.00 0.00 38 1007.9
20260831214733 28 167 3.2 6.4 0.00 0.00 0.00 37 1007.9
20260831213120 27 184 3.2 11.3 0.00 0.00 0.00 39 1008.0
20260831212619 27 178 1.6 11.3 0.00 0.00 0.00 39 1008.0
20260831212118 27 238 3.2 11.3 0.00 0.00 0.00 38 1008.1
20260831211618 27 165 3.2 11.3 0.00 0.00 0.00 39 1008.1
20260831211120 27 84 4.8 9.7 0.00 0.00 0.00 39 1008.2
20260831210619 27 0 3.2 9.7 0.00 0.00 0.00 39 1008.2
20260831210122 27 170 1.6 6.4 0.00 0.00 0.00 39 1008.3
20260831210116 27 42 1.6 6.4 0.00 0.00 0.00 40 1008.2
20260831205729 27 175 3.2 6.4 0.00 0.00 0.00 40 1008.4
20260831205231 27 146 3.2 8.0 0.00 0.00 0.00 40 1008.4
20260831204116 27 191 3.2 8.0 0.00 0.00 0.00 39 1008.4
20260831203617 27 134 1.6 8.0 0.00 0.00 0.00 40 1008.5
20260831203120 26 163 3.2 6.4 0.00 0.00 0.00 41 1008.6
20260831203116 27 162 1.6 6.4 0.00 0.00 0.00 40 1008.6
20260831202116 26 174 3.2 6.4 0.00 0.00 0.00 41 1008.7
20260831201616 26 103 3.2 6.4 0.00 0.00 0.00 42 1008.8
20260831201114 26 79 1.6 6.4 0.00 0.00 0.00 42 1008.9
20260831200614 26 157 1.6 6.4 0.00 0.00 0.00 41 1009.0
20260831200114 26 22 3.2 8.0 0.00 0.00 0.00 43 1009.0
20260831195614 25 15 1.6 8.0 0.00 0.00 0.00 42 1009.1
20260831195119 25 81 1.6 8.0 0.00 0.00 0.00 42 1009.2
20260831195115 25 117 1.6 8.0 0.00 0.00 0.00 43 1009.2
20260831194114 25 355 3.2 8.0 0.00 0.00 0.00 44 1009.3
20260831193614 25 194 3.2 11.3 0.00 0.00 0.00 44 1009.4
20260831193114 25 175 3.2 11.3 0.00 0.00 0.00 44 1009.4
20260831192613 24 105 3.2 8.0 0.00 0.00 0.00 46 1009.5
20260831192112 24 232 3.2 8.0 0.00 0.00 0.00 45 1009.6
20260831191612 24 227 3.2 9.7 0.00 0.00 0.00 45 1009.7
20260831191112 24 334 1.6 9.7 0.00 0.00 0.00 45 1009.7
20260831190611 24 355 1.6 9.7 0.00 0.00 0.00 45 1009.7
20260831190112 24 74 3.2 9.7 0.00 0.00 0.00 45 1009.9
20260831185614 24 178 3.2 8.0 0.00 0.00 0.00 46 1009.9
20260831185112 24 178 1.6 6.4 0.00 0.00 0.00 46 1009.9
20260831184612 24 179 1.6 4.8 0.00 0.00 0.00 46 1009.9
20260831184113 23 163 1.6 6.4 0.00 0.00 0.00 48 1010.0
20260831183611 23 178 1.6 6.4 0.00 0.00 0.00 49 1010.1
20260831183109 22 181 3.2 8.0 0.00 0.00 0.00 49 1010.2
20260831182611 22 178 1.6 8.0 0.00 0.00 0.00 51 1010.2
20260831182110 22 153 1.6 8.0 0.00 0.00 0.00 52 1010.3
20260831181610 22 192 1.6 8.0 0.00 0.00 0.00 52 1010.3
20260831181111 22 254 1.6 4.8 0.00 0.00 0.00 55 1010.3
20260831180616 21 273 1.6 6.4 0.00 0.00 0.00 54 1010.4
20260831180612 21 304 1.6 6.4 0.00 0.00 0.00 54 1010.4
20260831175616 21 181 0.0 4.8 0.00 0.00 0.00 55 1010.6
20260831175610 21 10 3.2 4.8 0.00 0.00 0.00 55 1010.5
20260831175110 21 287 1.6 6.4 0.00 0.00 0.00 54 1010.5
20260831174610 21 184 1.6 6.4 0.00 0.00 0.00 55 1010.6
20260831173609 21 170 1.6 6.4 0.00 0.00 0.00 57 1010.6
20260831173109 21 167 1.6 6.4 0.00 0.00 0.00 56 1010.7
20260831172606 21 182 1.6 4.8 0.00 0.00 0.00 57 1010.7
20260831172107 21 76 1.6 4.8 0.00 0.00 0.00 58 1010.7
20260831171607 20 133 1.6 6.4 0.00 0.00 0.00 58 1010.9
20260831171112 20 179 0.0 3.2 0.00 0.00 0.00 59 1011.0
20260831171107 20 191 1.6 6.4 0.00 0.00 0.00 58 1011.0
20260831170106 20 85 0.0 3.2 0.00 0.00 0.00 61 1011.0
20260831165607 20 73 0.0 4.8 0.00 0.00 0.00 63 1011.0
20260831165103 19 49 1.6 4.8 0.00 0.00 0.00 63 1011.1
20260831164604 19 13 1.6 4.8 0.00 0.00 0.00 64 1011.1
20260831164104 19 5 1.6 4.8 0.00 0.00 0.00 68 1011.2
20260831163604 18 290 0.0 4.8 0.00 0.00 0.00 68 1011.1
20260831163103 18 289 0.0 4.8 0.00 0.00 0.00 68 1011.1
20260831162603 18 230 0.0 0.0 0.00 0.00 0.00 70 1011.3
20260831162104 17 230 0.0 0.0 0.00 0.00 0.00 74 1011.3
20260831161603 16 230 0.0 3.2 0.00 0.00 0.00 76 1011.3
20260831161108 15 230 0.0 3.2 0.00 0.00 0.00 78 1011.5
20260831161103 16 230 0.0 3.2 0.00 0.00 0.00 78 1011.4
20260831160717 14 228 0.0 3.2 0.00 0.00 0.00 82 1011.5
20260831160104 15 230 0.0 3.2 0.00 0.00 0.00 80 1011.5
20260831155103 14 228 1.6 4.8 0.00 0.00 0.00 83 1011.6
20260831154604 13 221 1.6 4.8 0.00 0.00 0.00 83 1011.6
20260831154103 13 226 0.0 4.8 0.00 0.00 0.00 85 1011.6